sat.trackr.live / text

‹ back to catalog

LEMUR-2-SPECIAL-K

NORAD 48273 · 2021-034F

PAYLOAD ACTIVE UNKNOWN

§ Identity

Operator
Country
US
Launch date
2021-04-29
Launch site
FRGUI
Launch vehicle
Mass (kg)
RCS (m²)

Purposes: earth_obs

External: N2YO · Heavens-Above · Gunter

§ Orbital elements

Epoch: 2026-08-21T02:19:03.417312Z

Period
88.51 min
Inclination
97.5497°
Eccentricity
0.0015508
Mean motion
16.26892736 rev/d
Perigee alt
190.7 km
Apogee alt
211.1 km
Semi-major
6,579.0 km
B*
1.6672e-3
RAAN
326.3204°
Arg perigee
267.2653°
Mean anomaly
92.6864°
Rev number
29,194

§ Raw data

LEMUR-2-SPECIAL-K1 48273U 21034F   26233.09656733  .05654661  25669-5  16672-2 0  99992 48273  97.5497 326.3204 0015508 267.2653  92.6864 16.26892736291947

JSON: /api/v1/satellites/48273 · /tle

For live sub-satellite position, see the globe view (requires WebGL).

§ Visibility from observer

Set your observer location to see the next 7 days of passes ≥ 10°. The values pass through the URL so the page stays shareable.

No JS? Fill the form by hand. The geolocation button needs JavaScript.

§ Radio — SatNOGS DB

ModeDescriptionDownlinkUplink
FM Telemetry 400.552 MHz

1 transmitter · refreshed weekly from db.satnogs.org